Theta_e
322 324 326 326 326 324 325 327 327 324 318 320 322 323 322 321 327 329 332 333 335 335 334 335 335 335 335 334 333 333 332 332 332 332 332 332 332 333 333 332 332 331 329 326
322 324 322 323 324 324 325 325 326 322 319 320 319 322 320 319 323 328 329 331 332 333 333 334 335 335 334 333 333 333 333 333 332 332 332 332 332 331 328 323 321 321 320 320
322 321 319 323 323 325 325 326 325 324 320 320 320 322 319 318 319 322 325 329 330 331 331 331 332 333 333 333 332 332 332 332 331 329 326 322 319 318 317 318 318 318 318 318
320 319 320 322 324 323 327 323 324 322 324 328 322 330 321 318 318 315 317 323 329 329 326 327 327 329 328 328 328 326 325 324 321 316 313 312 312 313 314 315 315 315 315 314
320 320 322 323 323 321 325 322 323 323 324 325 325 328 327 318 318 316 312 314 320 321 321 322 321 322 321 321 320 316 313 312 312 312 312 312 313 313 313 313 312 312 311 310
317 318 320 321 320 321 320 319 317 319 322 328 326 327 328 320 317 315 311 310 311 314 314 314 313 313 312 312 312 313 313 313 313 313 313 313 313 312 311 311 310 309 309 309
313 319 316 319 321 321 320 323 321 322 323 326 321 325 327 319 319 314 311 311 311 311 312 312 313 313 313 313 312 311 310 310 309 309 309 309 309 309 309 308 307 307 306 305
317 320 319 318 320 321 322 321 322 324 323 319 315 324 323 317 314 313 312 312 313 312 312 311 311 311 310 309 309 309 308 308 308 307 307 307 306 306 305 305 305 304 304 303
317 318 315 315 318 318 319 320 313 312 307 315 318 316 309 308 314 312 311 312 312 311 310 309 309 309 311 311 309 308 308 308 308 307 307 306 306 305 305 304 303 303 302 301
315 318 316 315 317 316 317 314 319 315 319 318 311 310 311 309 310 315 312 312 310 312 317 318 310 309 309 309 308 308 309 308 307 307 307 306 305 304 303 303 302 302 302 302
314 316 314 315 319 318 315 315 315 314 314 317 316 315 306 308 308 312 316 318 319 319 317 311 309 309 310 310 309 309 308 308 307 307 306 305 303 303 302 302 302 302 301 300
312 315 316 314 311 312 315 315 313 317 315 311 314 311 306 306 307 310 310 313 314 313 308 309 309 310 310 309 309 308 307 307 306 306 304 303 303 302 302 302 302 300 299 298
311 313 315 315 314 313 314 313 310 311 311 313 315 311 305 305 305 308 308 308 309 309 309 309 310 310 309 309 308 308 307 306 305 304 303 303 302 302 302 301 299 298 297 295
310 309 313 315 315 314 313 312 312 312 313 311 310 309 308 306 305 306 308 309 309 309 310 310 310 310 309 308 308 307 306 305 304 303 302 302 301 300 299 298 296 294 292 292
310 310 307 305 306 311 312 312 311 312 310 314 310 309 308 307 306 307 308 309 309 309 309 310 309 309 308 308 307 306 304 303 302 301 301 300 298 298 296 294 292 291 290 290
304 308 308 308 305 309 310 311 310 310 309 308 307 310 306 308 308 308 308 309 310 310 309 310 309 308 308 307 306 305 303 301 301 300 298 298 297 294 292 291 290 290 290 289
304 302 302 306 301 311 308 309 310 309 309 308 309 308 305 308 308 309 309 310 310 310 310 310 309 308 307 306 305 304 301 300 299 298 297 296 294 292 291 290 290 289 289 289
302 299 299 303 300 312 305 297 304 310 309 308 308 307 307 308 307 307 308 309 309 309 309 308 308 307 306 305 304 301 300 299 298 297 295 294 292 291 290 290 289 289 288 288
299 299 292 302 293 298 300 300 306 310 309 306 307 305 306 306 305 305 306 306 307 308 308 308 307 306 305 303 301 300 299 298 297 295 293 291 290 289 289 289 288 288 288 287
297 298 300 292 301 300 301 300 303 302 307 302 306 305 303 303 303 301 304 306 307 307 307 307 305 304 303 300 299 298 298 296 294 293 291 290 289 289 289 288 288 287 286 286
296 291 293 287 289 293 294 300 301 305 307 301 303 305 303 302 302 303 305 305 306 306 305 305 304 301 299 298 298 297 296 294 293 292 290 289 289 289 288 287 286 286 285 285
299 296 291 283 288 297 294 299 300 299 301 302 303 304 303 303 303 303 303 304 304 304 303 301 299 299 298 298 297 296 293 293 292 290 289 289 288 287 286 285 285 284 284 284
299 295 293 295 295 294 297 299 300 301 302 302 302 301 301 302 302 303 303 303 302 301 300 299 298 298 298 297 296 293 292 292 291 290 289 288 287 286 285 285 284 284 283 283
296 295 296 294 294 294 298 299 300 301 302 302 301 301 301 301 301 302 302 302 301 300 299 298 298 298 297 295 294 292 291 291 290 289 288 287 286 285 285 284 283 283 283 283
294 295 296 295 296 298 298 299 301 301 302 302 301 301 300 301 301 301 301 300 300 299 299 299 299 297 296 295 292 291 291 290 289 288 287 286 286 285 284 283 283 283 282 282
294 295 295 294 296 296 297 300 300 301 301 300 300 300 300 300 300 300 300 300 299 299 299 299 297 296 295 294 292 291 290 289 288 287 286 286 285 284 283 283 282 282 282 281
Wind_Speed
7 5 16 15 16 5 16 7 6 4 1 3 5 5 4 6 9 13 22 24 23 21 22 21 19 18 16 14 14 13 12 12 12 12 13 14 16 17 18 19 20 20 20 21
4 11 7 8 9 4 8 7 6 3 1 2 1 7 1 4 7 19 23 22 20 22 23 21 19 18 17 16 15 15 15 15 14 15 16 17 16 15 15 16 16 17 17 17
9 4 10 10 9 10 9 15 11 4 3 3 2 5 3 3 3 10 15 19 19 22 21 17 17 17 16 16 15 14 15 14 11 12 14 13 13 13 12 12 13 13 12 12
5 4 13 9 13 9 9 4 7 12 7 5 1 4 5 4 5 3 7 18 22 23 17 17 17 17 15 14 12 10 9 11 11 11 10 9 8 6 6 7 8 9 10 11
4 10 14 13 8 11 2 9 8 3 7 5 2 1 1 5 5 5 7 15 21 21 18 18 17 15 12 10 9 8 6 5 3 1 1 2 3 3 4 5 6 7 9 10
4 7 9 5 6 6 11 10 9 6 2 6 7 10 4 4 5 6 11 15 17 23 19 19 17 15 14 11 9 8 7 7 7 6 6 5 5 5 4 4 5 6 8 10
3 3 4 6 10 11 5 10 2 2 2 2 1 8 4 3 2 2 16 21 13 14 21 13 18 17 17 16 14 13 11 7 4 5 4 4 4 4 5 6 8 9 10 11
5 5 8 3 6 5 10 5 4 5 5 2 3 5 2 4 10 12 18 22 21 10 19 15 19 20 19 16 11 10 8 6 4 3 3 4 5 6 7 9 10 12 12 13
4 3 4 1 3 9 4 4 2 5 3 3 3 5 4 5 5 16 19 23 24 21 20 14 15 17 18 14 13 9 7 4 2 2 4 6 7 8 8 9 10 11 13 14
2 2 2 0 8 6 2 5 2 2 4 2 1 3 3 4 8 7 12 23 28 27 18 13 15 15 15 13 9 6 4 1 1 2 5 6 7 7 7 8 10 13 16 19
3 1 2 2 2 7 4 5 4 2 2 3 3 4 2 4 8 13 18 29 30 27 21 26 23 17 14 11 9 6 3 2 2 3 4 6 6 6 8 11 14 18 22 25
2 2 3 0 5 2 4 6 5 3 3 1 0 2 2 2 8 15 17 21 25 26 29 27 22 18 13 9 7 6 4 2 2 3 4 5 6 9 12 16 20 23 25 25
7 3 4 3 3 3 3 5 4 5 3 0 2 3 3 3 7 17 23 27 31 32 28 23 19 16 13 10 8 6 4 3 3 3 4 6 8 12 16 20 22 23 23 23
8 4 1 3 0 5 5 6 6 7 3 5 4 3 2 2 6 12 20 27 29 27 25 21 17 16 14 12 9 7 6 4 3 3 5 9 13 17 19 19 20 20 19 19
4 4 3 4 4 2 2 12 9 9 5 4 6 6 4 4 7 16 21 28 29 26 21 17 17 18 17 14 11 9 7 5 4 4 8 13 15 17 17 16 16 17 17 19
3 3 2 7 8 6 3 5 7 4 5 6 8 4 3 4 10 14 18 26 29 28 24 20 19 19 19 16 12 9 8 6 5 9 12 14 15 15 15 15 16 16 17 18
4 6 4 1 3 5 3 5 5 4 2 7 5 6 9 4 8 11 13 17 23 24 25 24 23 21 19 16 12 9 7 6 9 12 14 14 14 14 14 15 16 18 19 20
6 5 3 3 1 2 4 3 1 4 5 4 6 6 9 9 9 10 12 14 14 16 20 23 22 21 18 14 11 8 6 10 12 13 13 13 14 14 15 16 18 18 20 21
4 5 4 4 2 3 4 3 6 5 6 5 7 7 11 11 7 5 7 10 10 11 13 16 17 17 15 11 8 8 11 12 13 12 13 14 14 15 16 18 19 20 21 21
6 8 4 2 5 5 3 1 3 4 4 10 12 11 11 13 4 4 9 8 9 9 11 14 16 14 10 9 10 11 12 13 12 13 14 15 16 17 18 20 20 21 22 22
3 4 4 2 2 6 5 2 5 6 5 9 14 14 16 5 4 5 10 10 10 11 12 13 12 11 11 10 11 12 13 13 13 14 15 17 18 20 20 20 21 21 21 22
3 4 2 3 4 4 4 4 7 2 11 14 17 16 13 10 9 10 10 10 10 11 11 11 11 9 10 11 13 14 13 13 15 16 17 18 19 19 20 21 21 21 21 22
1 3 4 4 4 1 7 2 2 12 18 15 17 15 12 10 8 8 7 8 9 10 11 11 11 11 12 13 14 13 13 15 16 17 18 19 19 20 21 22 22 22 22 22
1 1 2 3 1 4 8 2 8 13 13 14 12 9 6 5 5 6 9 11 13 14 13 13 13 14 14 16 15 14 15 16 17 18 19 19 20 21 22 22 21 21 22 22
3 2 2 3 5 2 7 10 10 11 11 11 9 6 4 6 7 9 12 14 15 15 16 16 16 17 17 18 16 17 17 18 19 19 20 21 22 22 22 21 21 21 22 23
8 6 4 4 3 4 2 15 14 13 10 9 10 11 9 10 11 12 12 14 17 19 19 19 19 20 19 20 19 19 20 20 21 21 22 23 23 23 22 21 19 20 20 21
Wind_Direction
190 192 194 190 199 214 202 168 178 169 93 157 203 265 207 182 196 188 197 201 201 199 202 204 206 213 216 220 224 229 234 242 247 253 262 268 272 277 281 286 288 291 293 296
167 213 191 151 178 200 221 192 183 62 97 120 259 262 236 175 207 209 204 202 201 201 202 207 211 216 218 222 232 239 242 248 256 264 267 269 274 280 281 283 288 292 297 302
206 166 150 168 172 194 220 220 199 149 130 63 131 284 235 207 176 206 223 215 197 207 203 204 207 210 214 219 225 233 238 244 248 256 263 271 279 281 282 284 291 299 306 311
243 158 169 172 184 177 216 160 169 150 141 201 174 265 220 218 161 112 178 200 196 197 196 194 193 192 194 194 194 198 217 235 248 263 277 274 273 278 294 308 315 319 319 323
205 167 170 174 183 180 207 113 136 123 142 140 203 166 223 171 191 146 122 174 178 172 169 164 163 165 168 174 185 198 216 237 253 257 26 24 28 30 7 347 344 338 338 339
295 221 158 159 134 125 129 90 53 57 81 198 163 177 214 215 182 141 123 139 154 148 150 155 154 150 151 146 150 146 120 113 104 92 76 57 47 42 24 354 336 338 337 336
342 227 91 160 107 139 144 137 86 108 177 193 35 191 225 303 347 155 147 139 139 150 142 157 149 140 131 128 124 123 116 103 91 77 67 45 17 2 343 337 338 339 338 342
199 200 149 204 138 166 153 144 153 163 174 144 352 229 240 184 118 128 135 134 137 157 129 146 134 128 126 124 121 121 120 112 91 55 28 12 357 348 341 343 343 346 351 354
172 172 126 321 110 134 155 151 192 112 40 105 184 256 292 99 101 128 137 139 138 148 136 143 131 143 152 155 161 147 127 119 101 16 350 347 344 344 345 355 357 350 345 341
206 99 33 41 104 47 129 136 102 357 139 126 219 267 236 224 173 166 145 151 156 159 167 182 174 159 144 144 141 119 117 134 330 346 338 343 348 351 353 356 342 333 332 330
206 360 17 56 200 148 126 133 77 97 58 139 127 262 181 223 196 190 186 186 192 196 186 178 173 164 161 155 157 164 180 216 273 329 337 345 345 344 343 336 328 327 325 325
196 101 114 181 296 39 119 159 151 128 202 72 164 250 50 303 172 174 180 194 195 189 171 167 165 163 165 165 168 178 193 219 297 319 331 331 335 332 327 322 321 321 322 323
174 148 126 82 77 18 132 161 136 106 50 263 103 264 35 47 161 175 166 174 172 166 163 166 168 174 179 181 190 203 213 224 259 297 313 318 313 312 313 315 319 323 325 327
132 80 132 129 72 131 146 152 135 95 117 181 202 189 307 125 166 167 170 168 165 165 165 171 179 188 194 201 204 204 213 223 245 273 302 309 312 315 319 323 326 328 330 333
98 103 155 110 51 47 104 155 156 179 184 144 188 156 205 202 163 170 174 173 171 173 180 190 198 199 203 207 206 212 218 235 244 284 304 310 317 321 324 328 330 333 335 336
77 160 103 27 22 76 99 164 140 122 123 80 107 80 135 98 119 137 161 176 182 189 201 211 211 209 207 206 208 216 227 228 272 303 312 320 323 327 329 330 331 332 333 335
117 133 99 98 353 27 5 210 173 131 142 139 156 189 157 138 134 146 152 174 194 206 214 218 217 214 208 207 214 224 229 266 301 313 319 323 324 321 320 324 329 335 339 341
117 90 67 142 300 130 245 281 271 140 154 136 106 134 155 165 157 164 175 180 198 213 220 222 216 207 204 209 218 226 257 295 305 310 312 311 310 314 321 328 333 335 336 337
40 107 74 129 146 291 323 207 159 151 232 199 139 135 138 142 148 207 209 214 216 219 215 211 202 202 205 213 226 249 276 292 299 300 300 306 312 319 327 329 327 329 330 333
50 57 109 133 118 181 249 195 160 87 285 190 181 170 158 153 168 243 196 190 188 181 180 186 191 197 211 226 242 270 288 293 291 297 304 311 319 321 321 321 322 325 327 329
34 22 112 82 113 288 245 166 144 107 243 158 184 178 166 157 183 160 168 164 165 171 181 187 197 207 218 243 269 282 287 285 292 303 311 316 316 314 314 315 317 321 325 327
114 117 144 81 72 281 170 110 172 209 134 138 136 139 144 135 136 152 166 178 186 194 197 199 205 223 251 268 278 282 282 290 306 312 311 307 304 307 311 315 318 321 322 323
86 160 179 172 201 280 183 269 236 152 144 140 135 133 134 136 148 166 184 203 208 205 210 217 236 256 270 277 282 283 293 301 303 299 296 299 306 312 315 316 317 317 319 320
280 213 90 70 265 243 210 200 151 152 149 148 148 143 143 148 179 207 221 225 226 225 231 246 261 273 279 281 275 279 282 289 292 295 301 305 308 311 313 311 312 314 316 317
212 149 131 271 255 264 236 206 173 160 162 171 180 205 232 222 232 246 244 244 244 247 252 262 271 275 277 271 269 276 284 290 292 296 298 300 303 305 307 309 311 313 316 318
192 181 161 214 204 109 182 193 191 196 202 211 231 242 250 248 258 254 252 253 254 255 256 263 267 273 277 270 272 277 281 287 291 292 294 296 300 303 305 305 307 312 314 317